Regional Weather Roundup
Issued by NWS

Home | Current Version | Previous Version | Graphics & Text | Print | Product List | Glossary On
Versions: 1 2 3 4 5 6 7 8 9 10 11 12 13 14 15 16 17 18 19 20 21 22 23 24 25 26 27 28 29 30 31 32 33 34 35 36 37 38 39 40 41 42 43 44 45 46 47 48 49 50
000
ASUS43 KOAX 040210
RWRNE

WEATHER ROUNDUP FOR NEBRASKA
NATIONAL WEATHER SERVICE OMAHA NE
800 PM CST TUE MAR 03 2015

NOTES: SATELLITE DATA IS BEING USED TO AUGMENT CLOUD COVER ABOVE
       12000 FEET.
       "FAIR" INDICATES FEW OR NO CLOUDS BELOW 12,000 FEET WITH NO
       SIGNIFICANT WEATHER AND/OR OBSTRUCTIONS TO VISIBILITY.

  * THESE STATIONS DO NOT REPORT WEATHER SUCH AS RAIN...SNOW OR FOG.

NEZ001>004-019>022-054>056-040300-
NEBRASKA PANHANDLE

CITY           SKY/WX    TMP DP  RH WIND       PRES   REMARKS
SCOTTSBLUFF    CLOUDY    17   9  70 NW12      29.99R WCI   4
ALLIANCE       CLOUDY    15  10  80 NW8       29.97R WCI   4
CHADRON        CLOUDY    17   6  62 NW15      30.02R WCI   2
KIMBALL        LGT SNOW  15  11  85 N12       29.89R WCI   1
SIDNEY         LGT SNOW  17  11  77 N16G22    29.94R WCI   2
$$

NEZ057>060-069>072-079>082-040300-
SOUTHWEST NEBRASKA

CITY           SKY/WX    TMP DP  RH WIND       PRES   REMARKS
NORTH PLATTE   CLOUDY    21   2  43 N10       30.01R WCI  10
IMPERIAL         N/A     23   6  48 NE9       29.99R WCI  13
LEXINGTON      MOCLDY    23   3  42 N12       30.02R WCI  11
MCCOOK         MOCLDY    27   5  39 N14       30.00R WCI  16
OGALLALA       CLOUDY    21   7  53 NE12      29.98S WCI   9
$$

NEZ005>010-023>029-035>040-094-040300-
NORTH CENTRAL NEBRASKA

CITY           SKY/WX    TMP DP  RH WIND       PRES   REMARKS
VALENTINE      CLOUDY    14   2  58 NW7       30.05R WCI   4
AINSWORTH      MOCLDY    17   3  55 NW10G16   30.04R WCI   4
BROKEN BOW     MOCLDY    20   3  48 N10       30.01R WCI   9
O`NEILL        CLEAR     14   4  64 NW6       30.05R WCI   5
ORD            CLEAR     18   1  47 N13       30.04R WCI   5
THEDFORD       CLOUDY    18   4  54 N10       30.02R WCI   7
$$

NEZ041-046>049-061>064-073>077-083>087-040300-
SOUTH CENTRAL NEBRASKA

CITY           SKY/WX    TMP DP  RH WIND       PRES   REMARKS
GRAND ISLAND   FAIR      20   4  50 N16       30.04R WCI   6
AURORA         CLEAR     22   6  49 N16G22    30.03R WCI   8
HASTINGS       CLEAR     22   4  46 N17       30.01R WCI   8
HEBRON         MOCLDY    27   3  36 N8        30.03R WCI  19
HOLDREGE       CLEAR     21   0  39 N12       30.00R WCI   9
KEARNEY *      CLEAR     21   0  39 N14       30.02R WCI   8
YORK           PTCLDY    21   7  53 N12       30.04R WCI   9
$$

NEZ011>018-030>034-042>045-040300-
NORTHEAST NEBRASKA

CITY           SKY/WX    TMP DP  RH WIND       PRES   REMARKS
NORFOLK        CLEAR     17   4  56 N10       30.05R WCI   5
ALBION         CLEAR     18   2  50 N9        30.05S WCI   7
BLAIR          PTCLDY    22   8  54 N15G25    30.03R WCI   8
COLUMBUS *     PTCLDY    19   0  42 N12G20    30.07R WCI   7
FREMONT        PTCLDY    21   7  53 N10G20    30.06R WCI  10
TEKAMAH        FAIR      20   7  57 N13       30.07R WCI   7
WAYNE          CLEAR     15   5  62 N10       30.08R WCI   3
$$

NEZ050>053-065>068-078-088>093-040300-
SOUTHEAST NEBRASKA

CITY           SKY/WX    TMP DP  RH WIND       PRES   REMARKS
LINCOLN        MOCLDY    24   6  46 N17       30.07R WCI  11
OMAHA EPPLEY   PTCLDY    22   8  55 N17G24    30.06R WCI   8
BEATRICE       CLOUDY    27   7  42 N10       30.03R WCI  17
FALLS CITY     CLOUDY    30  17  58 N12       30.01R WCI  20
NEBRASKA CITY  MOCLDY    27   4  37 N17G24    30.01S WCI  14
PLATTSMOUTH    MOCLDY    24   6  46 N12G17    30.03R WCI  13
$$

NEZ044-045-051>053-067-040300-
OMAHA AREA

CITY           SKY/WX    TMP DP  RH WIND       PRES   REMARKS
OMAHA EPPLEY   PTCLDY    22   8  55 N17G24    30.06R WCI   8
BLAIR          PTCLDY    22   8  54 N15G25    30.03R WCI   8
FREMONT        PTCLDY    21   7  53 N10G20    30.06R WCI  10
MILLARD        PTCLDY    24   7  48 N13G18    30.06R WCI  12
OFFUTT AFB     PTCLDY    24   7  48 N15G24    30.04R WCI  11
PLATTSMOUTH    MOCLDY    24   6  46 N12G17    30.03R WCI  13
WAHOO          FAIR      21   7  53 N12       30.06R WCI  10
$$


USA.gov is the U.S. government's official web portal to all federal, state and local government web resources and services.